Probability
68 61 71 74 48 52 55 48 45 55 48 52 39 58 55 61 52 39 94 84 84 87 81 74 81 84 84 87 87 71 68 71 68 65 55 52 42 35 32 29 23 19 13
61 55 65 68 48 39 39 39 35 58 48 52 45 52 61 52 68 61 71 87 84 84 74 77 74 77 74 71 74 81 74 71 74 68 58 52 52 45 29 26 23 13 10
68 48 45 48 39 35 48 39 39 39 45 42 45 55 55 58 45 55 45 68 77 84 81 77 68 74 68 71 74 68 74 77 81 77 71 61 55 52 39 29 26 23 19
74 77 55 45 45 26 39 29 26 19 19 26 45 35 52 68 55 55 48 55 68 55 74 77 74 74 71 68 74 74 81 81 90 81 81 65 58 55 48 55 35 39 29
61 52 55 55 35 29 32 23 26 13 19 29 26 39 26 39 61 19 39 39 52 61 71 77 74 77 65 61 65 71 68 81 81 81 84 74 71 71 55 58 52 45 29
55 42 48 39 26 29 35 32 29 29 29 39 6 13 19 16 23 29 19 26 35 35 32 42 65 61 61 58 61 58 55 61 77 74 81 81 71 74 71 65 61 45 35
52 61 26 45 35 32 29 19 26 26 23 26 23 19 16 13 13 39 32 39 23 32 32 45 45 42 58 58 58 61 55 55 58 65 65 65 68 77 71 68 61 48 42
58 35 35 29 35 39 32 29 29 19 19 16 16 16 6 6 19 6 23 23 19 29 13 10 23 45 29 26 23 58 58 55 55 58 68 68 65 71 65 61 65 61 45
55 39 26 26 26 23 26 42 35 32 19 16 13 6 10 6 6 0 10 10 19 19 16 23 19 35 32 26 32 35 48 61 55 42 58 61 65 58 58 55 55 52 42
35 29 29 32 39 26 29 23 10 16 23 10 13 16 13 6 6 16 10 3 6 13 3 0 3 13 26 19 35 10 26 35 39 45 55 65 61 48 45 45 45 52 58
32 29 26 29 35 35 19 16 13 19 10 16 13 3 3 3 0 16 10 6 3 0 0 0 3 3 6 19 23 13 3 6 16 35 55 58 58 61 48 35 26 32 42
48 32 26 29 32 19 26 26 23 19 23 23 19 6 13 6 10 6 3 3 10 3 3 6 0 0 3 6 10 6 3 3 0 0 6 23 26 39 48 39 29 29 26
39 35 23 29 29 32 29 19 29 16 19 29 23 10 6 3 6 3 3 3 3 3 3 3 3 3 0 10 16 3 6 0 0 0 0 0 0 6 23 26 29 26 29
35 29 26 23 23 26 13 23 16 16 19 19 6 13 10 3 6 3 3 3 6 3 6 3 3 0 0 6 0 0 6 0 0 0 0 0 0 0 0 6 6 6 10
19 26 23 23 23 23 19 29 19 19 23 6 3 10 13 10 10 10 6 6 6 3 3 3 3 3 6 10 0 10 16 0 0 0 0 0 0 0 0 0 0 0 0
29 39 29 29 29 35 45 45 23 23 26 16 29 10 10 6 6 3 10 6 10 3 10 3 6 3 3 0 0 3 6 0 0 0 0 0 0 0 0 0 0 0 0
61 45 48 39 35 32 42 48 19 13 13 16 13 10 13 13 13 19 6 6 6 10 3 6 10 3 13 19 13 6 3 10 0 0 0 0 0 0 0 0 0 0 0
48 45 35 32 29 23 26 23 23 13 10 10 6 10 6 3 6 16 23 10 13 10 6 6 13 13 13 13 16 35 0 0 0 0 0 0 0 0 0 0 0 0 0
39 42 42 29 26 29 29 35 19 13 10 6 6 6 6 10 16 16 13 13 13 6 23 13 16 10 16 6 6 6 0 10 0 0 0 0 0 0 0 0 0 0 0
39 42 32 29 26 23 19 16 10 10 10 10 10 10 6 6 10 16 13 23 23 13 16 19 10 10 10 3 6 3 6 10 0 0 0 0 0 0 0 0 0 0 0
29 35 29 23 23 16 16 16 13 3 10 6 6 3 3 0 0 0 0 6 13 16 16 16 13 16 6 10 6 6 0 0 3 0 3 0 0 0 0 0 0 0 0
29 29 23 23 23 10 0 0 0 10 6 3 3 3 0 0 0 0 0 0 0 3 6 10 6 6 0 0 3 0 3 6 6 0 0 0 0 0 0 0 0 0 0
19 19 19 16 19 6 0 0 0 6 3 3 3 3 0 0 0 0 0 0 0 0 0 0 0 3 3 3 3 3 3 3 3 0 0 0 0 0 0 0 0 0 0
16 16 13 13 10 6 0 0 0 0 3 3 6 6 6 0 0 0 0 0 0 0 0 0 0 0 0 0 0 0 0 0 0 0 0 0 0 0 0 0 0 0 0
13 13 10 6 10 6 0 0 0 0 3 3 3 0 0 0 0 0 0 0 0 0 0 0 0 0 0 0 0 0 0 0 0 0 0 0 0 0 0 0 0 0 0
6 6 6 6 6 6 0 0 0 0 3 0 0 0 0 0 0 0 0 0 0 0 0 0 0 0 0 0 0 0 0 0 0 0 0 0 0 0 0 0 0 0 0
Height
5887 5888 5889 5889 5890 5890 5891 5891 5891 5892 5892 5892 5892 5893 5893 5893 5893 5893 5894 5894 5894 5895 5895 5896 5897 5897 5898 5898 5899 5900 5900 5901 5902 5902 5903 5903 5904 5904 5904 5905 5905 5905 5905
5886 5887 5889 5889 5890 5890 5890 5891 5891 5891 5891 5892 5892 5892 5893 5893 5893 5893 5893 5893 5894 5894 5895 5895 5896 5896 5897 5897 5898 5898 5899 5900 5900 5901 5902 5902 5903 5903 5903 5904 5904 5904 5904
5885 5886 5888 5889 5889 5890 5890 5890 5891 5891 5891 5892 5892 5892 5892 5892 5893 5893 5893 5893 5893 5893 5894 5894 5895 5895 5896 5896 5897 5897 5898 5898 5899 5899 5900 5901 5901 5901 5902 5902 5902 5903 5903
5884 5885 5887 5888 5888 5889 5890 5890 5891 5891 5891 5892 5892 5892 5892 5892 5892 5892 5892 5892 5892 5893 5893 5893 5894 5894 5895 5895 5896 5896 5896 5897 5897 5898 5898 5899 5899 5899 5900 5900 5901 5901 5901
5883 5884 5886 5887 5888 5889 5889 5890 5891 5891 5891 5892 5892 5892 5892 5892 5892 5892 5892 5892 5892 5892 5892 5892 5893 5893 5894 5894 5894 5895 5895 5895 5896 5896 5896 5896 5897 5897 5898 5898 5899 5899 5899
5881 5883 5885 5886 5887 5888 5889 5889 5890 5891 5891 5892 5892 5892 5892 5892 5892 5892 5892 5892 5892 5892 5892 5892 5892 5892 5892 5893 5893 5893 5893 5894 5894 5894 5894 5894 5895 5895 5896 5896 5896 5897 5897
5880 5882 5883 5885 5886 5887 5888 5889 5890 5891 5891 5892 5892 5892 5892 5892 5893 5893 5892 5892 5892 5891 5891 5891 5891 5891 5891 5892 5892 5892 5892 5892 5892 5892 5893 5893 5893 5893 5893 5894 5894 5894 5894
5878 5880 5882 5883 5885 5886 5887 5888 5889 5890 5891 5892 5892 5892 5893 5893 5893 5893 5892 5892 5892 5891 5891 5891 5891 5891 5890 5891 5891 5891 5891 5891 5891 5891 5891 5891 5891 5891 5891 5891 5892 5892 5892
5876 5878 5880 5882 5883 5885 5886 5887 5889 5890 5890 5891 5892 5892 5892 5893 5893 5893 5892 5892 5892 5891 5891 5890 5890 5890 5889 5889 5889 5889 5889 5889 5889 5889 5889 5888 5888 5888 5889 5889 5889 5889 5889
5874 5876 5878 5880 5882 5883 5885 5886 5887 5888 5889 5890 5891 5891 5892 5892 5892 5892 5892 5891 5891 5890 5890 5890 5889 5889 5888 5888 5888 5888 5887 5887 5887 5887 5886 5886 5886 5886 5886 5886 5886 5886 5886
5873 5874 5876 5878 5880 5881 5883 5884 5886 5887 5888 5889 5889 5890 5890 5890 5890 5891 5891 5890 5890 5889 5889 5888 5888 5887 5887 5886 5886 5886 5885 5885 5885 5884 5884 5884 5883 5883 5883 5883 5883 5882 5882
5871 5873 5874 5876 5878 5879 5881 5882 5884 5885 5886 5886 5887 5888 5888 5889 5889 5889 5889 5888 5888 5888 5887 5886 5886 5885 5884 5884 5883 5883 5883 5882 5882 5881 5881 5880 5880 5880 5879 5879 5879 5878 5878
5869 5870 5872 5874 5876 5877 5878 5880 5881 5882 5883 5884 5885 5885 5886 5886 5886 5886 5886 5886 5885 5885 5884 5884 5883 5882 5882 5881 5881 5880 5879 5879 5878 5878 5877 5877 5876 5875 5875 5874 5874 5874 5873
5866 5868 5870 5871 5873 5874 5876 5877 5879 5880 5880 5881 5882 5882 5883 5883 5883 5883 5883 5883 5882 5882 5881 5881 5880 5879 5878 5878 5877 5876 5876 5875 5874 5873 5873 5872 5871 5871 5870 5869 5869 5868 5868
5864 5865 5867 5869 5870 5872 5873 5874 5875 5876 5877 5877 5878 5879 5879 5879 5880 5880 5879 5879 5879 5878 5877 5877 5876 5875 5874 5873 5872 5872 5871 5870 5869 5868 5868 5867 5866 5865 5864 5864 5863 5862 5861
5861 5862 5864 5865 5867 5868 5869 5871 5872 5872 5873 5874 5874 5875 5875 5875 5875 5875 5875 5874 5874 5873 5872 5871 5871 5870 5869 5868 5867 5866 5865 5864 5863 5862 5861 5861 5860 5859 5858 5857 5856 5855 5854
5858 5859 5860 5862 5863 5864 5866 5867 5867 5868 5869 5869 5869 5870 5870 5870 5870 5869 5869 5869 5868 5867 5867 5865 5864 5864 5862 5861 5860 5859 5858 5857 5856 5855 5854 5853 5852 5851 5850 5849 5848 5847 5846
5854 5855 5856 5858 5859 5860 5861 5862 5863 5863 5864 5864 5864 5865 5865 5864 5864 5863 5863 5863 5862 5861 5860 5859 5858 5857 5855 5854 5853 5852 5850 5849 5847 5847 5845 5844 5843 5842 5841 5840 5839 5838 5836
5850 5851 5852 5853 5855 5856 5856 5857 5858 5858 5858 5859 5859 5858 5858 5858 5857 5857 5857 5856 5855 5854 5853 5852 5851 5849 5848 5846 5845 5844 5842 5840 5838 5837 5836 5834 5833 5832 5831 5829 5828 5827 5825
5846 5847 5848 5849 5850 5850 5851 5852 5852 5852 5852 5852 5852 5852 5852 5851 5851 5850 5850 5849 5848 5847 5845 5844 5843 5841 5840 5838 5836 5835 5833 5831 5829 5827 5826 5824 5823 5821 5819 5818 5816 5815 5813
5842 5843 5843 5844 5845 5845 5845 5846 5846 5846 5846 5846 5845 5845 5844 5844 5844 5843 5843 5841 5840 5839 5837 5836 5834 5833 5831 5829 5827 5825 5823 5821 5819 5817 5815 5813 5811 5809 5808 5806 5804 5802 5800
5837 5838 5838 5839 5839 5839 5840 5840 5840 5840 5840 5839 5839 5838 5837 5837 5836 5836 5835 5833 5832 5830 5829 5827 5825 5823 5821 5820 5818 5816 5813 5811 5809 5807 5805 5802 5799 5797 5794 5792 5790 5788 5786
5832 5832 5832 5833 5833 5833 5834 5834 5834 5833 5833 5832 5832 5831 5830 5829 5828 5827 5826 5824 5823 5821 5820 5818 5816 5814 5812 5810 5808 5805 5802 5799 5797 5794 5792 5789 5786 5783 5780 5777 5775 5772 5770
5827 5827 5827 5827 5827 5827 5827 5827 5827 5826 5825 5824 5824 5823 5822 5821 5819 5818 5817 5815 5813 5812 5810 5808 5806 5803 5801 5798 5796 5793 5790 5787 5784 5781 5778 5775 5771 5768 5764 5761 5758 5755 5752
5822 5822 5822 5822 5821 5821 5821 5821 5820 5819 5818 5817 5816 5815 5813 5812 5811 5809 5807 5806 5804 5802 5799 5797 5794 5792 5789 5786 5783 5780 5777 5774 5770 5766 5764 5760 5756 5752 5748 5744 5740 5737 5734
5818 5817 5817 5816 5816 5815 5814 5814 5813 5812 5811 5810 5808 5807 5805 5803 5801 5799 5798 5796 5794 5791 5789 5786 5783 5781 5778 5774 5771 5767 5763 5759 5755 5751 5748 5743 5739 5735 5732 5727 5722 5718 5714
Wind_Speed
7 6 5 4 3 3 2 2 2 2 1 1 1 1 1 1 2 3 3 4 4 4 6 6 6 6 7 7 7 8 8 8 8 7 7 7 7 7 7 7 6 6 5
8 7 6 5 3 3 3 2 2 2 2 2 1 1 1 1 2 2 3 4 4 4 5 6 6 6 7 7 7 8 9 9 9 9 8 8 8 8 7 7 7 7 6
9 8 6 6 4 4 3 3 2 2 2 2 2 1 1 1 1 2 2 4 4 5 5 6 6 6 6 6 6 7 9 9 9 9 9 10 10 9 9 9 9 8 8
10 9 8 6 5 4 4 4 3 3 2 2 2 2 2 1 1 2 2 2 3 4 4 5 5 6 6 6 7 7 7 8 8 9 10 10 10 10 10 10 10 10 9
11 10 9 7 6 5 5 4 4 3 3 2 2 2 2 1 1 1 1 1 1 3 3 4 4 4 5 6 7 7 8 8 8 8 9 10 11 11 11 11 11 11 11
12 11 10 9 7 7 6 5 5 4 4 3 3 2 2 2 1 1 0 0 0 1 2 3 3 4 4 5 6 7 7 8 8 9 9 9 10 11 11 11 11 11 12
13 12 11 10 9 8 8 7 6 5 4 4 3 3 2 2 1 1 1 0 0 0 1 1 2 3 4 5 6 6 7 8 8 8 9 9 9 10 11 11 11 11 11
13 12 12 11 9 9 9 8 7 6 5 4 4 3 3 2 1 1 1 1 1 1 1 2 3 4 5 5 6 7 7 8 9 9 10 10 10 11 11 11 12 12 12
13 13 12 11 10 10 10 9 7 7 6 5 4 4 3 3 3 2 2 2 2 2 3 4 4 5 5 6 7 7 8 8 9 9 10 11 11 11 11 12 13 13 13
13 13 12 12 12 11 11 10 9 8 8 7 6 6 5 5 4 4 4 4 4 5 5 6 6 6 6 7 7 8 8 9 9 10 10 11 11 12 13 14 14 15 15
13 13 12 12 13 12 12 11 11 10 9 9 8 7 7 7 7 6 6 6 7 7 7 7 8 8 9 9 9 10 10 10 10 11 11 12 13 13 14 15 16 16 17
14 14 13 13 13 13 13 13 12 12 11 10 10 9 9 9 9 9 9 9 10 9 9 10 10 10 11 11 11 11 12 12 12 13 13 14 14 15 16 17 17 18 19
14 15 14 14 14 14 14 14 14 13 12 12 12 12 12 12 12 12 12 12 12 12 12 12 12 13 13 13 14 14 14 15 15 16 16 17 17 18 18 19 20 20 21
14 15 15 15 15 15 15 15 15 15 14 14 14 14 14 14 15 15 15 15 15 15 15 15 15 16 16 16 17 17 17 18 18 19 19 20 21 21 21 22 22 23 24
15 15 15 16 16 16 16 17 16 16 16 16 16 16 17 17 17 17 17 17 18 18 18 18 18 18 19 19 20 21 21 22 22 23 23 23 24 24 24 25 25 26 27
16 15 15 16 17 18 18 18 18 18 18 19 19 19 19 19 20 20 20 21 21 21 22 22 22 22 23 23 24 24 25 26 26 27 27 27 28 28 29 29 29 30 30
17 17 17 17 18 19 19 19 19 20 20 21 21 21 21 22 22 23 23 23 23 24 25 25 25 25 26 26 27 27 28 29 30 30 31 31 32 32 33 33 33 34 34
18 18 18 18 18 19 20 20 20 21 21 21 22 22 22 23 23 24 24 25 26 26 26 27 27 27 28 29 30 31 31 32 32 32 33 34 34 35 35 36 37 37 38
18 19 19 20 20 20 21 21 21 22 23 23 24 24 24 24 25 26 26 27 27 28 29 29 29 30 31 32 33 33 33 34 35 35 36 37 37 38 38 39 40 41 42
19 20 20 20 21 22 22 22 23 23 24 25 25 26 26 26 27 27 28 28 29 30 30 31 32 32 33 34 35 35 35 36 36 37 38 39 40 41 41 42 43 44 44
20 21 21 22 23 23 24 25 25 24 25 26 27 27 27 28 28 28 29 29 30 31 32 33 34 35 36 36 37 37 38 38 38 39 40 41 42 43 44 45 45 46 47
20 21 23 24 23 24 24 25 26 26 27 28 29 29 28 29 30 30 31 32 32 32 33 35 35 36 37 38 39 39 40 42 43 43 44 45 46 47 48 49 49 51 52
20 21 23 24 26 26 26 27 27 27 28 29 29 29 29 30 31 32 33 34 34 34 34 35 37 38 39 39 41 42 44 45 46 47 47 48 49 50 52 53 54 55 56
20 21 22 24 25 25 25 26 27 28 28 28 28 29 31 32 32 33 34 35 35 36 36 37 38 39 40 42 43 45 46 48 49 49 50 51 53 54 55 56 57 58 59
19 19 20 21 23 24 25 26 27 27 27 28 29 30 31 32 33 34 35 36 37 38 38 38 39 41 43 43 44 46 47 48 50 51 52 53 55 56 57 58 60 60 61
20 20 20 21 22 23 25 26 27 27 28 29 30 31 32 33 34 34 35 36 37 38 39 40 42 43 44 45 46 48 49 51 52 54 55 56 57 58 58 59 61 63 63
Wind_Direction
197 196 198 203 206 197 175 161 142 147 168 177 182 192 208 212 217 224 227 226 223 226 221 218 219 226 228 225 226 227 227 226 228 232 236 239 242 247 247 246 249 254 258
199 198 202 203 204 203 194 187 165 163 179 180 182 196 208 225 234 240 232 230 230 231 228 225 228 231 230 230 234 238 236 235 234 238 242 244 247 251 252 251 251 254 260
204 203 202 200 200 202 201 194 175 166 166 164 166 175 197 226 242 246 242 238 236 238 238 238 239 241 240 241 245 247 241 241 241 244 249 250 252 254 253 256 256 256 260
206 203 199 199 197 199 199 193 179 165 163 169 171 172 184 204 219 238 251 244 233 237 238 241 243 245 245 246 247 251 250 247 247 250 253 253 254 254 255 255 257 258 260
205 201 199 199 196 196 197 194 186 178 175 180 181 172 170 172 180 219 260 272 247 242 240 242 248 256 248 247 251 253 257 256 256 258 256 255 254 254 255 257 258 260 263
208 202 200 201 201 200 197 194 188 183 177 176 170 160 150 145 151 141 182 247 243 252 242 239 251 259 257 253 254 256 258 259 261 263 264 261 257 257 257 257 258 261 264
208 207 205 206 207 202 197 194 193 187 180 178 172 167 161 154 152 144 127 68 32 324 289 255 253 261 262 258 261 263 265 264 265 265 263 264 262 259 257 257 259 262 264
207 207 206 208 208 204 202 200 198 194 193 191 190 187 182 182 197 223 267 302 312 306 310 300 282 278 273 267 268 271 271 270 268 267 266 268 267 263 260 259 260 263 265
207 208 210 209 207 206 205 201 200 202 205 201 202 206 206 208 225 247 259 276 286 293 298 300 292 287 285 282 277 275 276 275 273 273 272 271 270 267 267 265 264 267 269
205 206 210 211 210 208 206 207 208 213 214 217 223 227 232 237 243 249 258 270 280 286 289 290 288 285 282 281 281 279 277 277 277 276 277 275 273 271 269 269 269 269 270
210 211 212 215 216 215 213 214 217 220 222 225 229 232 238 243 250 257 265 271 276 279 282 284 283 282 280 280 280 280 278 278 279 279 279 277 277 276 275 273 272 272 272
217 217 217 220 221 219 219 221 224 226 227 229 234 239 245 250 256 262 267 272 275 276 278 281 281 279 278 277 277 277 277 276 276 277 278 277 277 277 275 275 274 274 274
220 221 222 224 225 224 224 227 230 231 234 237 241 245 249 255 260 264 269 273 275 276 278 279 278 279 279 277 276 276 276 276 275 276 277 277 277 277 276 276 276 276 276
223 224 227 229 230 229 231 232 234 236 240 244 246 249 252 256 262 266 269 272 275 276 277 279 278 278 277 276 277 276 275 275 276 276 276 276 277 277 277 276 275 275 275
224 228 231 233 234 234 234 236 237 241 245 247 249 252 255 258 262 267 270 273 276 277 279 279 279 278 277 277 276 275 276 276 276 276 276 277 277 277 277 277 276 276 276
228 231 234 236 235 237 238 240 243 247 250 252 255 258 259 262 265 268 270 272 275 276 277 278 277 277 277 277 277 277 276 276 276 276 276 277 277 277 277 277 276 276 275
233 236 238 240 241 241 242 244 248 251 253 255 258 260 262 266 269 269 270 271 273 275 278 279 279 277 278 278 280 279 279 279 279 278 278 278 279 278 277 277 276 276 276
237 239 240 243 244 246 247 249 251 255 258 261 261 262 264 266 268 270 272 274 274 275 278 280 279 278 278 279 281 282 282 282 282 282 281 280 280 280 279 278 278 277 277
243 243 244 244 248 250 251 252 254 258 261 262 263 265 266 267 269 271 273 275 275 275 277 278 278 279 278 279 280 281 282 282 282 282 281 281 280 280 280 280 279 279 278
248 249 250 251 253 254 255 256 257 260 262 264 265 267 268 269 270 271 273 274 275 275 276 277 277 277 278 279 280 281 281 281 282 283 283 282 281 282 281 281 280 280 280
251 252 254 256 256 256 258 259 260 262 265 267 268 268 268 268 270 272 274 275 276 275 276 276 277 278 279 279 280 281 281 282 282 284 284 283 283 282 282 282 281 281 280
255 256 256 257 256 258 258 259 261 264 267 268 269 271 269 269 271 273 275 276 277 277 277 278 278 279 279 279 280 281 281 282 282 283 284 283 284 284 283 283 282 281 281
259 258 258 259 259 261 262 263 263 265 268 270 272 273 273 273 275 274 275 276 276 278 278 279 280 280 280 281 282 283 282 283 284 284 284 284 284 284 284 284 283 283 282
263 263 261 261 263 264 265 265 267 270 272 273 273 274 275 275 275 276 276 277 277 278 279 281 282 283 284 284 284 284 284 284 285 285 285 285 285 286 285 285 284 284 283
265 265 266 267 267 267 267 268 271 274 275 276 274 275 276 277 277 278 279 279 281 282 282 283 284 285 286 286 286 287 287 286 286 287 287 287 287 287 287 286 286 285 284
267 267 269 271 271 271 270 270 272 275 276 276 276 278 278 279 279 279 280 281 283 284 285 286 286 286 287 288 288 289 289 288 288 288 288 288 288 287 287 287 286 286 285